This is the latest recevied weather packets stored in our database for station/object N5AEH. If no packets are shown the sender has not sent any weather packets the latest 1 day(s).
| Time | Temp. | Humidity | Pressure | Rain* | Wind** | Luminosity | Snow |
|---|---|---|---|---|---|---|---|
| 1778026401 | 13.89° C | 99% | 1010.7 hPa | 0 mm | 0 m/s | 0 W/m² | - |
| 1778026098 | 13.89° C | 99% | 1011 hPa | 0 mm | 0 m/s | 0 W/m² | - |
| 1778025796 | 13.89° C | 99% | 1010.7 hPa | 0 mm | 0 m/s | 0 W/m² | - |
| 1778025493 | 13.89° C | 99% | 1010.9 hPa | 0 mm | 0 m/s | 0 W/m² | - |
| 1778025190 | 13.89° C | 99% | 1010.8 hPa | 0 mm | 0 m/s | 0 W/m² | - |
| 1778024887 | 13.89° C | 99% | 1010.5 hPa | 0 mm | 0 m/s | 0 W/m² | - |
| 1778024585 | 13.89° C | 99% | 1010.3 hPa | 0 mm | 0 m/s | 0 W/m² | - |
| 1778024281 | 13.89° C | 99% | 1010.4 hPa | 0 mm | 0 m/s | 1 W/m² | - |
| 1778023979 | 13.89° C | 99% | 1010.1 hPa | 0 mm | 0 m/s | 6 W/m² | - |
| 1778023676 | 13.89° C | 99% | 1010 hPa | 0 mm | 0 m/s | 3 W/m² | - |
| 1778023374 | 13.89° C | 99% | 1010.1 hPa | 0 mm | 0 m/s | 4 W/m² | - |
| 1778023070 | 13.89° C | 99% | 1010.4 hPa | 0 mm | 0 m/s | 1 W/m² | - |
| 1778022769 | 14.44° C | 99% | 1010.1 hPa | 0 mm | 0 m/s | 5 W/m² | - |
| 1778022466 | 14.44° C | 99% | 1010.1 hPa | 0 mm | 0 m/s | 17 W/m² | - |
| 1778022163 | 14.44° C | 99% | 1010.2 hPa | 0 mm | 0 m/s | 30 W/m² | - |
| 1778021859 | 14.44° C | 99% | 1010 hPa | 0 mm | 0 m/s | 26 W/m² | - |
| 1778021557 | 15° C | 99% | 1009.9 hPa | 0 mm | 0 m/s | 19 W/m² | - |
| 1778021252 | 15° C | 99% | 1010 hPa | 0 mm | 0 m/s | 23 W/m² | - |
| 1778020950 | 15° C | 99% | 1010 hPa | 0 mm | 0 m/s | 25 W/m² | - |
| 1778020647 | 15° C | 99% | 1009.7 hPa | 0 mm | 0 m/s | 53 W/m² | - |
| 1778020344 | 14.44° C | 99% | 1009.8 hPa | 0 mm | 0 m/s | 75 W/m² | - |
| 1778020039 | 14.44° C | 99% | 1010.1 hPa | 0 mm | 0 m/s | 59 W/m² | - |
| 1778019735 | 14.44° C | 99% | 1009.6 hPa | 0 mm | 0 m/s | 45 W/m² | - |
| 1778019433 | 14.44° C | 99% | 1009.6 hPa | 0 mm | 0 m/s | 22 W/m² | - |
| 1778019129 | 14.44° C | 99% | 1009.8 hPa | 0 mm | 0 m/s | 26 W/m² | - |
* Rain latest hour (hover to see other rain measurements)
** Current wind speed in m/s (hover to see current wind gust speed)